{"data":{"norad_id":49762,"intl_designator":"2021-115AQ","name":"STARLINK-3195","alt_names":[],"object_type":"PAYLOAD","status":"ACTIVE","operator":null,"country":"US","launch_date":"2021-12-02","launch_site_code":"AFETR","launch_vehicle":null,"mission":null,"orbit_class":"UNKNOWN","rcs_meters":null,"size_class":null,"mass_kg":null,"dimensions":null,"purposes":["comms"],"wikipedia_slug":null,"has_3d_model":false,"image_url":null,"decayed_at":null,"tle_current":{"epoch":"2026-05-24T18:03:59.480064Z","epoch_age_seconds":96528,"freshness":"FRESH","line1":"1 49762U 21115AQ  26144.75277176 -.00000141  00000+0  92265-5 0  9992","line2":"2 49762  53.2127 157.6600 0001338  77.0148 283.0994 15.08834675247169","mean_motion":15.08834675,"eccentricity":0.0001338,"inclination_deg":53.2127,"raan_deg":157.66,"arg_perigee_deg":77.0148,"mean_anomaly_deg":283.0994,"bstar":9.2265e-6,"rev_number":24716,"period_min":95.437891497291,"perigee_km":538.83405083284,"apogee_km":540.6852799805,"semimajor_km":6917.8966654067,"source":"CELESTRAK","updated_at":"2026-05-25T13:38:16.839809Z"}}}